Location: Tamazert
(32.6352°N, 5.2072°W)
Time: 12:07:56
(UTC+00:00)

Explorer 7 - All Passes

Search period start: 05 October 2022 00:00
Search period end: 15 October 2022 00:00
Orbit: 482 x 667 km, 50.3° (Epoch: 04 October)

Date Brightness Start Highest point End Pass type
(mag) Time Alt. Az. Time Alt. Az. Time Alt. Az.
05 Oct - 08:08:59 10° S 08:12:51 25° SE 08:16:47 10° ENE daylight
05 Oct - 09:48:25 10° WSW 09:53:05 49° NW 09:57:47 10° NE daylight
05 Oct - 11:31:56 10° NW 11:34:27 14° NNW 11:36:58 10° NNE daylight
05 Oct - 14:56:07 10° NNW 14:58:53 15° NNE 15:01:35 10° ENE daylight
05 Oct - 16:35:33 10° NW 16:40:03 67° NE 16:44:16 10° ESE daylight
05 Oct - 18:17:40 10° W 18:19:54 14° SW 18:22:05 10° SSW visible
06 Oct - 08:10:39 10° SSW 08:15:06 40° SE 08:19:38 10° ENE daylight
06 Oct - 09:51:15 10° W 09:55:37 33° NNW 10:00:00 10° NNE daylight
06 Oct - 11:35:42 10° NW 11:37:16 11° NNW 11:38:49 10° N daylight
06 Oct - 14:58:07 10° NNW 15:01:36 20° NNE 15:04:57 10° ENE daylight
06 Oct - 16:37:56 10° NW 16:42:27 74° SW 16:46:40 10° SE daylight
07 Oct - 08:12:42 10° SW 08:17:24 67° SE 08:22:13 10° NE daylight
07 Oct - 09:54:17 10° W 09:58:12 24° NNW 10:02:08 10° NNE daylight
07 Oct - 13:21:42 10° N 13:22:28 10° NNE 13:23:15 10° NNE daylight
07 Oct - 15:00:12 10° NNW 15:04:14 28° NNE 15:08:04 10° E daylight
07 Oct - 16:40:29 10° WNW 16:44:45 43° SW 16:48:46 10° SSE daylight
08 Oct - 06:37:18 10° SSE 06:39:51 14° SE 06:42:25 10° E daylight
08 Oct - 08:15:01 10° SW 08:19:46 77° NW 08:24:38 10° NE daylight
08 Oct - 09:57:32 10° WNW 10:00:51 18° NNW 10:04:11 10° NNE daylight
08 Oct - 13:23:14 10° N 13:25:17 13° NNE 13:27:19 10° NE daylight
08 Oct - 15:02:21 10° NW 15:06:46 42° NE 15:10:56 10° ESE daylight
08 Oct - 16:43:16 10° WNW 16:46:58 25° SW 16:50:29 10° S daylight
09 Oct - 06:38:15 10° S 06:42:00 24° SE 06:45:50 10° ENE daylight
09 Oct - 08:17:35 10° WSW 08:22:11 49° NW 08:26:55 10° NE daylight
09 Oct - 10:00:59 10° NW 10:03:34 14° NNW 10:06:10 10° NNE daylight
09 Oct - 13:25:07 10° NNW 13:28:02 16° NNE 13:30:52 10° ENE daylight
09 Oct - 15:04:35 10° NW 15:09:13 66° NE 15:13:35 10° ESE daylight
09 Oct - 16:46:34 10° W 16:49:07 15° SW 16:51:36 10° SSW daylight
10 Oct - 06:39:52 10° SSW 06:44:11 39° SE 06:48:41 10° ENE daylight
10 Oct - 08:20:22 10° W 08:24:41 34° NNW 08:29:05 10° NNE daylight
10 Oct - 10:04:39 10° NW 10:06:20 12° NNW 10:08:01 10° N daylight
10 Oct - 13:27:07 10° NNW 13:30:42 21° NNE 13:34:11 10° ENE daylight
10 Oct - 15:06:56 10° NW 15:11:35 77° SW 15:15:57 10° SE daylight
11 Oct - 06:41:50 10° SW 06:46:27 65° SE 06:51:14 10° NE daylight
11 Oct - 08:23:20 10° W 08:27:14 24° NNW 08:31:11 10° NNE daylight
11 Oct - 11:50:28 10° N 11:51:31 11° NNE 11:52:36 10° NNE daylight
11 Oct - 13:29:10 10° NNW 13:33:18 29° NNE 13:37:15 10° E daylight
11 Oct - 15:09:25 10° WNW 15:13:51 45° SW 15:18:02 10° SSE daylight
12 Oct - 05:06:37 10° SSE 05:08:54 14° SE 05:11:14 10° E visible
12 Oct - 06:44:07 10° SW 06:48:46 79° NW 06:53:36 10° NE daylight
12 Oct - 08:26:32 10° WNW 08:29:52 18° NNW 08:33:13 10° NNE daylight
12 Oct - 11:52:07 10° N 11:54:18 13° NNE 11:56:28 10° NE daylight
12 Oct - 13:31:18 10° NW 13:35:48 42° NE 13:40:06 10° ESE daylight
12 Oct - 15:12:09 10° WNW 15:16:03 27° SW 15:19:46 10° S daylight
13 Oct - 05:07:25 10° S 05:11:00 23° SE 05:14:43 10° ENE visible
13 Oct - 06:46:38 10° WSW 06:51:09 50° NW 06:55:51 10° NE daylight
13 Oct - 08:29:56 10° NW 08:32:32 14° NNW 08:35:09 10° NNE daylight
13 Oct - 11:54:01 10° NNW 11:57:01 16° NNE 11:59:57 10° ENE daylight
13 Oct - 13:33:30 10° NW 13:38:13 65° NE 13:42:42 10° ESE daylight
13 Oct - 15:15:20 10° W 15:18:10 16° SW 15:20:54 10° SSW daylight
14 Oct - 05:08:58 10° SSW 05:13:09 37° SE 05:17:32 10° ENE visible
14 Oct - 06:49:21 10° W 06:53:36 34° NNW 06:58:00 10° NNE daylight
14 Oct - 08:33:33 10° NW 08:35:16 12° NNW 08:36:58 10° N daylight
14 Oct - 11:55:59 10° NNW 11:59:39 21° NNE 12:03:13 10° ENE daylight
14 Oct - 13:35:47 10° NW 13:40:33 79° SW 13:45:03 10° SE daylight
